TimePST,TemperatureF,Dew PointF,Humidity,Sea Level PressureIn,VisibilityMPH,Wind Direction,Wind SpeedMPH,Gust SpeedMPH,PrecipitationIn,Events,Conditions,WindDirDegrees,DateUTC
12:56 AM,23.0,3.9,44,30.39,10.0,Calm,Calm,-,N/A,,Clear,0,2013-01-17 08:56:00
1:56 AM,21.9,3.9,46,30.39,10.0,South,3.5,-,N/A,,Clear,180,2013-01-17 09:56:00
2:56 AM,27.0,8.1,45,30.38,10.0,Calm,Calm,-,N/A,,Clear,0,2013-01-17 10:56:00
3:56 AM,18.0,1.0,48,30.39,10.0,Calm,Calm,-,N/A,,Clear,0,2013-01-17 11:56:00
4:56 AM,17.1,1.0,50,30.40,10.0,Calm,Calm,-,N/A,,Clear,0,2013-01-17 12:56:00
5:56 AM,21.0,5.0,50,30.40,10.0,Calm,Calm,-,N/A,,Clear,0,2013-01-17 13:56:00
6:56 AM,16.0,1.0,52,30.43,10.0,Calm,Calm,-,N/A,,Clear,0,2013-01-17 14:56:00
7:56 AM,23.0,5.0,46,30.43,10.0,Calm,Calm,-,N/A,,Clear,0,2013-01-17 15:56:00
8:56 AM,30.0,6.1,36,30.44,10.0,Calm,Calm,-,N/A,,Clear,0,2013-01-17 16:56:00
9:56 AM,37.9,7.0,28,30.43,10.0,Calm,Calm,-,N/A,,Partly Cloudy,0,2013-01-17 17:56:00
10:56 AM,45.0,9.0,23,30.40,10.0,Calm,Calm,-,N/A,,Clear,0,2013-01-17 18:56:00
11:56 AM,53.1,10.9,19,30.36,10.0,North,4.6,-,N/A,,Clear,10,2013-01-17 19:56:00
12:56 PM,57.9,10.9,16,30.32,10.0,NNE,3.5,-,N/A,,Clear,30,2013-01-17 20:56:00
1:56 PM,59.0,9.0,14,30.30,10.0,ENE,3.5,-,N/A,,Clear,70,2013-01-17 21:56:00
2:56 PM,60.1,8.1,13,30.28,10.0,Calm,Calm,-,N/A,,Clear,0,2013-01-17 22:56:00
3:56 PM,-9999,-9999,N/A,30.25,10.0,Calm,Calm,-,N/A,,Clear,0,2013-01-17 23:56:00
4:56 PM,55.0,7.0,15,30.31,10.0,NW,4.6,-,N/A,,Clear,310,2013-01-18 00:56:00
5:56 PM,50.0,6.1,17,30.30,10.0,WNW,5.8,-,N/A,,Clear,300,2013-01-18 01:56:00
6:56 PM,37.9,1.9,22,30.35,10.0,SW,3.5,-,N/A,,Clear,220,2013-01-18 02:56:00
7:56 PM,37.0,1.0,22,30.34,10.0,SSW,10.4,-,N/A,,Clear,210,2013-01-18 03:56:00
8:56 PM,37.0,1.9,23,30.33,10.0,SSW,10.4,-,N/A,,Clear,200,2013-01-18 04:56:00
9:56 PM,37.0,3.0,24,30.32,10.0,SSW,8.1,-,N/A,,Clear,210,2013-01-18 05:56:00
10:56 PM,30.9,1.0,28,30.31,10.0,Calm,Calm,-,N/A,,Clear,0,2013-01-18 06:56:00
11:56 PM,30.0,1.0,29,30.31,10.0,SSW,6.9,-,N/A,,Clear,210,2013-01-18 07:56:00